Preview of NWS' New Version of Forecast
This preview is not operational and should not be used for support decisions.

Regional Weather Roundup (RWR)

Issued by National Weather Service (NWS)

                            
000
ASUS43 KLSX 211257
RWRMO 

WEATHER SUMMARY FOR MISSOURI
NATIONAL WEATHER SERVICE SPRINGFIELD MO
800 AM CDT SUN JUL 21 2019

NOTE: "FAIR" INDICATES FEW OR NO CLOUDS BELOW 12,000 FEET WITH NO
       SIGNIFICANT WEATHER AND/OR OBSTRUCTIONS TO VISIBILITY.
       CURRENT SKY AND/OR WEATHER CONDITIONS ARE NOT AVAILABLE FOR
       CHILLICOTHE AND FARMINGTON.

MOZ001>031-035>038-043-044-053-054-211400-
...NORTHERN AND WESTERN MISSOURI...
  
CITY           SKY/WX    TMP DP  RH WIND       PRES   REMARKS
KANSAS CTY INT LGT RAIN  70  69  97 SW13      29.98F                  
ST JOSEPH      LGT RAIN  71  69  93 SW7       29.97F                  
CHILLICOTHE      N/A     72  70  93 NW5       30.00R                  
     
$$
MOZ066>068-077>081-088>096-101>105-211400-
...SOUTHWEST MISSOURI...
  
CITY           SKY/WX    TMP DP  RH WIND       PRES   REMARKS
SPRINGFIELD    PTSUNNY   79  72  79 CALM      30.01R                  
JOPLIN         SUNNY     78  73  84 VRB5      30.00R                  
               
$$
MOZ032>034-039>042-045>050-055>058-069>072-211400-
...CENTRAL MISSOURI...  
  
CITY           SKY/WX    TMP DP  RH WIND       PRES   REMARKS
COLUMBIA       NOT AVBL                                               
ROLLA          SUNNY     73  69  87 W8        29.97R                  
SEDALIA        MOSUNNY   69  69 100 SW12      29.92F                  
WARRENSBURG    DRIZZLE   68  68 100 SW8       29.94F                  
               
$$
MOZ051-052-059>065-211400-
...EAST CENTRAL MISSOURI...
  
CITY           SKY/WX    TMP DP  RH WIND       PRES   REMARKS
ST LOUIS INTL  CLOUDY    81  68  64 VRB3      29.93R                  
                   
$$
MOZ072>076-082>087-097>100-106>115-211400-
...SOUTH CENTRAL AND SOUTHEAST MISSOURI...
  
CITY           SKY/WX    TMP DP  RH WIND       PRES   REMARKS
CAPE GIRARDEAU FAIR      80  76  87 SW7       29.94S                  
POPLAR BLUFF   PTSUNNY   78  78 100 SW8       29.95F FOG              
WEST PLAINS    SUNNY     77  74  90 W6        30.01S                  
                                       
$$